Location: Lavington
(51.2833°N, 1.9833°W)
Time: 02:42:49
(UTC+00:00)

Cosmos 1437 Rocket - Pass Details

Date: 01 June 2020
Orbit: 507 x 561 km, 81.2° (Epoch: 11 July)

Event Time Altitude Azimuth Distance (km) Brightness Sun altitude
Rises 21:05:26 0° 187° (S) 2,603 5.9 -6.5°
Reaches altitude 10° 21:07:33 10° 186° (S) 1,725 5.0 -6.7°
Maximum altitude 21:11:19 76° 100° (E) 535 2.6 -7.1°
Drops below altitude 10° 21:15:10 10° 15° (NNE) 1,758 5.9 -7.5°
Sets 21:17:20 0° 14° (NNE) 2,659 6.9 -7.7°
